Погода в Камышовке

Россия / Еврейская автономная область     48°33′02″N   134°36′12″E
темп.,
°C
ветер,
м/с
пор.,
м/с
влажн.,
%
обл.,
%
осадки,
мм/ч
давл.,
гПа
погр.,
м
10 мая, пн
пн1001:00+5св71378100 0.0 1007807
04:00+5св61379100 0.0 1008804
07:00+5св5127393 0.0 1010867
10:00+8св695678 0.0 10111114
13:00+12св574664 0.0 10101606
16:00+13св3445100 0.0 10101692
19:00+11в345698 0.0 1011367
22:00+7в396570 0.0 1014464
11 мая, вт
вт1101:00+4в258022 0.0 1015142
04:00+3св388239 0.0 1015245
07:00+5св377599 0.0 1017315
10:00+9св335729 0.0 1017975
13:00+12сз234895 0.0 10171637
16:00+12сз445985 0.0 10171095
19:00+12зсз11615 0.0 1017845
22:00+7зсз11805 0.0 101810
12 мая, ср
ср1201:00+6ююв11855 0.0 101810
04:00+5вюв3381100 0.0 101734
07:00+7вюв247192 0.0 1016115
10:00+14ююв5851100 0.0 10141062
13:00+16ю7945100 0.0 10111808
16:00+12ююз81370100 0.3 10101510
19:00+10ю91688100 4.8 1009980
22:00+10ю8148640 5.0 1009570
13 мая, чт
чт1301:00+10ю71386100 0.2 1008647
04:00+9ю81588100 0.6 1007636
07:00+9ю8158757 0.0 1007579
10:00+15юз8116151 0.0 10071499
13:00+16зюз7105433 0.1 10071816
16:00+20з8163286 0.1 10063805
19:00+18зсз510410 0.0 1007475
22:00+10ссв227848 0.0 101017
14 мая, пт
пт1401:00+10юв227473 0.0 101014
04:00+10ю2268100 0.0 101011
07:00+11ююв1170100 0.0 101122
10:00+18ю45535 0.0 1010620
13:00+23ююз563831 0.0 10081936
16:00+24ююз6731100 0.0 10062817
19:00+20ю2456100 0.0 100594
22:00+16ю3958100 0.0 1004215